Precipitable_Water
1.32 1.31 1.36 1.40 1.35 1.33 1.43 1.59 1.65 1.73 1.82 1.89 1.98 1.95 1.88 1.84 1.82 1.73 1.64 1.47 1.36 1.48 1.48 1.49 1.51 1.39 1.46 1.41 1.23 1.18 1.20 1.18
1.31 1.34 1.36 1.41 1.40 1.41 1.51 1.61 1.64 1.71 1.81 1.89 1.98 1.95 1.92 1.89 1.85 1.77 1.62 1.40 1.39 1.47 1.49 1.50 1.45 1.37 1.43 1.39 1.33 1.26 1.23 1.17
1.21 1.23 1.36 1.43 1.45 1.49 1.53 1.61 1.66 1.70 1.83 1.91 1.96 1.95 1.89 1.88 1.85 1.81 1.71 1.52 1.39 1.41 1.48 1.53 1.52 1.45 1.36 1.38 1.32 1.26 1.22 1.15
1.17 1.22 1.32 1.45 1.50 1.51 1.54 1.61 1.70 1.73 1.82 1.95 1.98 1.97 1.94 1.92 1.87 1.75 1.71 1.56 1.48 1.47 1.56 1.60 1.60 1.44 1.38 1.28 1.26 1.23 1.20 1.18
1.18 1.25 1.31 1.42 1.46 1.50 1.55 1.62 1.67 1.75 1.84 1.91 1.97 1.91 1.93 1.97 1.95 1.84 1.69 1.65 1.57 1.57 1.65 1.62 1.57 1.37 1.30 1.26 1.23 1.20 1.18 1.17
1.22 1.37 1.34 1.41 1.49 1.51 1.54 1.58 1.65 1.72 1.84 1.93 1.93 1.94 1.95 1.95 1.89 1.89 1.81 1.69 1.52 1.63 1.59 1.60 1.58 1.36 1.30 1.33 1.24 1.19 1.19 1.12
1.16 1.36 1.45 1.44 1.48 1.54 1.56 1.59 1.63 1.71 1.80 1.98 1.99 1.94 1.90 1.85 1.90 1.89 1.79 1.75 1.63 1.58 1.62 1.62 1.44 1.37 1.43 1.42 1.25 1.17 1.14 1.12
1.23 1.27 1.40 1.49 1.49 1.51 1.57 1.61 1.65 1.70 1.78 1.93 1.99 1.94 1.84 1.88 1.88 1.86 1.89 1.83 1.55 1.58 1.58 1.44 1.41 1.44 1.49 1.45 1.23 1.20 1.14 1.12
1.20 1.23 1.38 1.47 1.50 1.54 1.58 1.63 1.65 1.68 1.75 1.91 1.95 1.88 1.82 1.73 1.60 1.50 1.44 1.57 1.47 1.52 1.38 1.41 1.45 1.54 1.41 1.40 1.24 1.16 1.14 1.10
0.94 1.23 1.22 1.29 1.43 1.55 1.61 1.65 1.67 1.67 1.77 1.88 1.91 1.92 1.81 1.58 1.32 1.14 1.12 1.14 1.11 1.29 1.32 1.34 1.35 1.41 1.41 1.30 1.18 1.14 1.15 1.10
0.85 1.07 1.24 1.19 1.35 1.49 1.62 1.64 1.65 1.66 1.71 1.82 1.80 1.94 1.87 1.67 1.32 1.08 1.13 1.10 1.14 1.23 1.33 1.43 1.47 1.47 1.43 1.29 1.12 1.13 1.13 1.10
1.03 0.99 1.13 1.17 1.29 1.44 1.60 1.65 1.64 1.68 1.61 1.73 1.79 1.84 1.86 1.66 1.44 1.09 1.16 1.14 1.22 1.23 1.32 1.57 1.56 1.56 1.48 1.21 1.05 1.18 1.15 1.09
1.16 1.13 1.05 1.13 1.17 1.24 1.33 1.46 1.56 1.60 1.63 1.66 1.82 1.77 1.82 1.75 1.56 1.15 1.18 1.21 1.28 1.30 1.38 1.55 1.58 1.61 1.51 1.07 1.02 1.17 1.15 1.13
0.91 1.20 1.31 0.95 1.08 1.15 1.26 1.42 1.58 1.61 1.62 1.56 1.63 1.76 1.71 1.63 1.54 1.25 1.21 1.38 1.36 1.49 1.42 1.54 1.58 1.64 1.43 1.00 0.78 1.00 1.09 1.09
0.85 0.96 1.29 1.36 1.14 1.18 1.32 1.46 1.55 1.57 1.55 1.49 1.59 1.62 1.64 1.57 1.45 1.29 1.39 1.61 1.65 1.58 1.60 1.47 1.41 1.56 1.49 0.86 0.77 0.83 0.92 1.03
0.83 1.01 1.15 1.52 1.44 1.31 1.05 1.08 1.15 1.44 1.54 1.51 1.55 1.61 1.58 1.49 1.44 1.49 1.57 1.58 1.69 1.65 1.66 1.61 1.54 1.35 1.30 1.01 1.04 1.05 0.81 0.77
0.76 0.98 1.09 1.30 1.53 1.43 1.26 1.07 1.17 1.35 1.55 1.51 1.56 1.57 1.50 1.39 1.50 1.56 1.53 1.53 1.72 1.69 1.68 1.65 1.62 1.42 1.19 0.95 0.94 1.01 1.00 0.88
0.68 0.82 1.03 1.13 1.35 1.36 1.45 1.23 1.17 1.21 1.39 1.52 1.47 1.55 1.49 1.41 1.46 1.49 1.44 1.51 1.61 1.70 1.75 1.64 1.55 1.49 1.29 1.01 0.88 0.84 0.93 0.93
0.64 0.72 0.87 1.07 1.17 1.38 1.48 1.41 1.37 1.19 1.30 1.45 1.47 1.39 1.48 1.39 1.33 1.35 1.45 1.51 1.64 1.71 1.64 1.65 1.52 1.47 1.20 0.93 0.91 1.00 1.18 1.11
0.61 0.66 0.75 0.95 1.12 1.29 1.48 1.42 1.43 1.38 1.33 1.22 1.36 1.43 1.42 1.45 1.32 1.29 1.43 1.49 1.51 1.59 1.64 1.47 1.44 1.36 1.17 1.00 0.89 1.03 1.26 1.19
Wind_Speed
12 12 12 11 10 12 13 14 16 17 19 21 22 25 26 27 25 24 22 22 23 23 23 22 19 17 17 15 13 12 12 10
13 13 13 12 11 13 14 15 16 18 19 20 23 28 27 26 26 25 24 24 24 24 23 22 19 17 18 16 13 12 11 10
15 15 14 13 12 14 15 16 17 18 20 21 26 29 28 26 25 25 24 26 27 25 24 22 19 18 18 16 13 12 11 9
17 17 16 15 14 15 16 17 18 19 20 21 28 29 28 26 26 26 25 28 27 26 25 23 20 20 18 15 14 12 11 8
18 18 18 17 16 16 17 18 19 20 21 23 26 28 27 27 27 27 28 29 29 27 25 23 21 19 17 16 14 13 10 8
18 19 19 19 17 17 18 19 20 21 22 22 27 28 27 26 27 29 30 29 30 28 26 24 22 20 18 16 15 13 10 9
21 20 20 20 19 18 19 20 21 22 24 24 21 28 26 28 28 30 31 31 31 30 29 25 23 21 19 17 15 13 11 10
24 22 22 21 21 21 20 21 22 23 24 23 23 27 27 28 28 29 29 32 32 31 30 26 24 22 20 18 16 13 12 11
29 26 24 23 22 22 22 22 23 24 25 24 24 27 28 28 29 28 29 32 33 32 30 27 25 23 20 19 16 14 13 11
32 30 27 26 25 25 24 24 24 25 26 26 23 27 29 29 29 29 31 32 32 32 29 27 25 23 21 19 16 15 14 12
37 34 31 28 27 26 26 26 26 26 27 28 26 28 30 29 31 31 32 32 32 32 30 27 26 24 21 19 17 16 15 13
38 36 34 31 29 27 27 28 27 28 29 29 30 28 28 32 33 33 34 33 33 32 30 28 27 25 22 19 18 17 16 14
37 37 35 33 31 31 29 29 29 29 30 31 33 27 26 29 34 36 35 35 34 33 32 30 27 26 24 19 18 17 17 15
31 35 40 35 33 32 31 30 31 31 31 32 32 31 30 26 36 37 38 37 36 34 33 30 28 29 25 20 19 18 18 17
29 35 36 41 35 32 32 31 31 32 33 33 33 32 32 29 30 41 39 36 36 36 34 33 31 29 29 22 20 18 18 19
28 31 35 39 40 36 35 34 32 34 34 34 35 35 34 32 28 38 42 39 36 37 36 35 33 32 30 26 22 19 19 18
25 29 33 36 37 42 38 36 35 33 35 34 35 36 35 32 31 32 37 43 39 40 37 37 35 34 31 30 25 22 20 19
24 27 31 35 37 35 44 39 36 35 37 36 35 36 36 35 36 31 32 34 41 41 40 38 38 37 34 32 29 24 23 20
24 27 29 33 36 37 37 42 40 38 38 37 36 37 37 37 38 36 32 33 31 42 41 39 40 39 36 32 32 29 25 23
26 26 29 30 34 37 36 37 41 39 40 38 34 37 37 38 39 37 36 34 36 34 42 42 42 41 37 34 33 32 28 26
Wind_Direction
235 232 230 230 226 217 210 206 201 198 196 193 192 186 183 181 180 180 179 180 178 173 172 170 169 167 166 161 157 154 151 148
239 232 228 227 226 217 210 206 201 197 197 194 193 184 182 182 183 184 183 180 177 173 173 173 173 173 169 165 160 157 155 151
239 232 230 228 226 217 210 205 201 197 195 195 188 186 185 186 187 184 184 185 179 179 177 174 173 169 168 167 165 161 158 155
239 232 230 227 224 218 212 206 203 200 198 194 189 187 188 189 189 189 189 184 183 182 180 176 175 170 170 170 168 164 161 158
235 231 229 226 224 220 214 209 206 203 199 198 195 193 194 196 195 196 192 186 186 183 182 180 178 176 175 172 169 167 164 159
236 231 228 227 225 223 216 212 208 205 202 200 198 201 202 202 199 192 190 189 187 188 185 182 180 180 176 174 173 171 169 161
237 231 229 227 224 222 219 215 211 208 205 206 215 200 199 200 196 194 192 192 192 192 189 186 184 182 180 178 176 175 172 166
233 232 229 226 225 223 220 216 213 210 209 210 209 200 199 196 193 191 192 194 192 187 186 186 184 184 182 181 180 180 175 170
230 229 228 226 226 223 221 218 214 213 210 209 203 204 194 190 190 189 186 184 183 184 184 185 186 186 186 184 186 183 180 177
229 227 226 226 225 222 221 219 215 214 212 206 209 198 193 191 189 188 186 185 185 186 187 187 188 189 188 189 190 188 186 184
223 223 225 226 223 222 220 219 217 216 212 211 209 199 200 198 196 192 190 189 190 190 191 191 190 191 192 193 194 194 193 192
223 223 224 224 222 221 221 220 218 217 214 213 209 212 204 200 202 196 195 194 195 195 194 195 196 194 193 195 198 199 199 200
223 220 219 220 221 219 220 220 218 217 215 214 212 213 214 210 203 202 200 199 199 199 199 198 199 199 197 199 202 205 206 208
229 225 219 219 220 221 221 219 219 217 216 215 215 214 214 219 210 206 203 202 202 202 201 201 204 204 203 206 208 212 213 212
235 229 226 219 220 219 219 218 217 217 217 218 218 218 216 214 216 211 205 206 206 205 206 207 207 206 207 212 211 215 215 217
237 230 227 222 220 218 218 220 220 222 220 219 218 216 215 217 219 208 209 209 210 209 210 211 211 212 212 215 215 216 216 218
240 232 226 223 221 221 220 221 223 221 219 219 219 216 218 219 211 204 210 216 216 212 211 213 214 213 214 215 218 221 219 219
241 234 229 227 224 227 221 221 221 219 218 218 219 217 219 218 212 212 212 216 218 214 213 215 214 215 217 218 220 221 221 219
241 237 233 230 226 226 223 223 221 219 217 220 219 219 219 217 217 216 217 214 215 215 213 218 217 216 217 220 221 222 222 220
242 240 235 233 230 229 228 226 223 222 219 219 220 219 220 218 219 219 219 219 218 220 219 219 216 216 220 221 222 222 223 223